Haines, AK

10:45 AM AKDT on March 27, 2017 (GMT -0800)
Haines

Weather History for PAHN - November, 2013

Change the Weather History Date:

Saturday, November 9, 2013

  Actual Average Record
Temperature  
Mean Temperature 23 °F -  
Max Temperature 28 °F 36 °F 51 °F (2016)
Min Temperature 18 °F 29 °F 9 °F (1989)
Degree Days  
Heating Degree Days 42    
Moisture  
Dew Point 12 °F    
Average Humidity 62    
Maximum Humidity 85    
Minimum Humidity 49    
Precipitation  
Precipitation 0.00 in - - ()
Sea Level Pressure  
Sea Level Pressure 30.30 in    
Wind  
Wind Speed 13 mph (NW)    
Max Wind Speed 17 mph    
Max Gust Speed 24 mph    
Visibility 7 miles    
Events      
Averages and records for this station are not official NWS values.
T = Trace of Precipitation, MM = Missing Value Source: NWS Daily Summary

Daily Weather History Graph

Daily Weather History Graph

Search for Another Location

Airport or City:

Trip Planner

Search our weather history database for the weather conditions in past years. The results will help you decide how hot, cold, wet, or windy it might be!

Date:

Astronomy

Nov. 09, 2013 Rise Set
Actual Time 7:41 AM AKST 3:49 PM AKST
Civil Twilight 6:55 AM AKST 4:35 PM AKST
Nautical Twilight 6:06 AM AKST 5:24 PM AKST
Astronomical Twilight 5:18 AM AKST 6:12 PM AKST
Moon 1:05 PM AKST (11/9) 10:51 PM AKST (11/9)
Length of Visible Light 9h 39m
Length of Day
8h 07m
Waxing Crescent, 46% of the Moon is Illuminated
Nov 9
Waxing Crescent
Nov 9
First Quarter
Nov 17
Full
Nov 25
Last Quarter
Dec 2
New

Hourly Weather History & Observations

Time (AKST) Temp. Windchill Dew Point Humidity Pressure Visibility Wind Dir Wind Speed Gust Speed Precip Events Conditions
12:28 AM 24.8 °F 12.4 °F 12.2 °F 59% 30.24 in 4.0 mi NW 15.0 mph 21.9 mph N/A   Haze
12:40 AM 24.8 °F 12.9 °F 12.2 °F 59% 30.24 in 2.0 mi NW 13.8 mph 18.4 mph N/A   Haze
12:54 AM 24.1 °F 11.5 °F 10.9 °F 57% 30.25 in 4.0 mi NW 15.0 mph 23.0 mph N/A   Haze
1:05 AM 24.8 °F 12.4 °F 12.2 °F 59% 30.25 in 3.0 mi WNW 15.0 mph - N/A   Haze
1:39 AM 24.8 °F 13.4 °F 10.4 °F 54% 30.26 in 3.0 mi NW 12.7 mph 20.7 mph N/A   Haze
1:54 AM 23.0 °F 11.1 °F 12.0 °F 63% 30.27 in 4.0 mi NW 12.7 mph 20.7 mph N/A   Haze
2:24 AM 23.0 °F 9.6 °F 10.4 °F 59% 30.27 in 5.0 mi NW 16.1 mph 21.9 mph N/A   Haze
2:37 AM 23.0 °F 10.1 °F 10.4 °F 59% 30.27 in 7.0 mi WNW 15.0 mph 21.9 mph N/A   Mostly Cloudy
2:51 AM 23.0 °F 10.1 °F 10.4 °F 59% 30.28 in 8.0 mi NW 15.0 mph - N/A   Scattered Clouds
2:54 AM 23.0 °F 11.1 °F 10.9 °F 60% 30.28 in 8.0 mi NW 12.7 mph 20.7 mph N/A   Partly Cloudy
3:54 AM 24.1 °F 12.0 °F 10.0 °F 55% 30.27 in 10.0 mi NW 13.8 mph 23.0 mph N/A   Clear
4:54 AM 25.0 °F 14.8 °F 9.0 °F 51% 30.27 in 10.0 mi NW 10.4 mph 20.7 mph N/A   Clear
5:54 AM 21.9 °F 9.2 °F 12.0 °F 66% 30.28 in 4.0 mi WNW 13.8 mph - N/A   Haze
6:14 AM 23.0 °F 10.6 °F 10.4 °F 59% 30.27 in 6.0 mi NW 13.8 mph 23.0 mph N/A   Haze
6:54 AM 21.9 °F 10.4 °F 10.9 °F 63% 30.27 in 9.0 mi NW 11.5 mph 23.0 mph N/A   Clear
7:54 AM 23.0 °F 11.7 °F 10.0 °F 58% 30.29 in 9.0 mi NW 11.5 mph 24.2 mph N/A   Clear
8:03 AM 21.2 °F 6.8 °F 10.4 °F 63% 30.28 in 4.0 mi WNW 17.3 mph 24.2 mph N/A   Haze
8:54 AM 24.1 °F 13.1 °F 10.0 °F 55% 30.29 in 10.0 mi WNW 11.5 mph 19.6 mph N/A   Clear
9:46 AM 24.8 °F 14.0 °F 10.4 °F 54% 30.30 in 2.5 mi NW 11.5 mph - N/A   Haze
9:54 AM 24.1 °F 11.0 °F 10.9 °F 57% 30.31 in 2.0 mi WNW 16.1 mph 21.9 mph N/A   Haze
10:14 AM 26.6 °F 14.3 °F 10.4 °F 51% 30.30 in 4.0 mi WNW 16.1 mph 24.2 mph N/A   Haze
10:23 AM 24.8 °F 14.0 °F 10.4 °F 54% 30.31 in 4.0 mi WNW 11.5 mph - N/A   Haze
10:34 AM 24.8 °F 12.9 °F 12.2 °F 59% 30.30 in 4.0 mi WNW 13.8 mph - N/A   Haze
10:54 AM 26.1 °F 15.0 °F 12.0 °F 55% 30.31 in 6.0 mi WNW 12.7 mph - N/A   Haze
11:54 AM 27.0 °F 16.1 °F 10.0 °F 49% 30.30 in 10.0 mi WNW 12.7 mph - N/A   Clear
12:54 PM 28.0 °F 17.0 °F 12.0 °F 51% 30.30 in 10.0 mi WNW 13.8 mph - N/A   Clear
1:54 PM 27.0 °F 17.3 °F 12.0 °F 53% 30.31 in 10.0 mi WNW 10.4 mph - N/A   Clear
2:54 PM 27.0 °F 17.3 °F 12.0 °F 53% 30.31 in 10.0 mi WNW 10.4 mph - N/A   Clear
3:54 PM 23.0 °F 13.1 °F 12.9 °F 65% 30.32 in 10.0 mi WNW 9.2 mph - N/A   Clear
4:54 PM 25.0 °F 17.1 °F 12.9 °F 60% 30.33 in 10.0 mi WNW 6.9 mph - N/A   Clear
5:54 PM 21.9 °F - 14.0 °F 72% 30.34 in 10.0 mi Calm Calm - N/A   Clear
6:54 PM 21.9 °F - 14.0 °F 72% 30.35 in 10.0 mi Calm Calm - N/A   Clear
7:54 PM 19.9 °F 11.1 °F 15.1 °F 81% 30.35 in 10.0 mi WNW 6.9 mph - N/A   Clear
8:54 PM 19.9 °F 9.3 °F 15.1 °F 81% 30.35 in 10.0 mi WNW 9.2 mph - N/A   Clear
9:54 PM 19.0 °F 6.8 °F 15.1 °F 85% 30.35 in 10.0 mi WNW 11.5 mph - N/A   Clear
10:54 PM 18.0 °F 12.7 °F 14.0 °F 84% 30.35 in 10.0 mi WNW 3.5 mph - N/A   Clear
11:54 PM 18.0 °F 9.8 °F 14.0 °F 84% 30.35 in 10.0 mi WNW 5.8 mph - N/A   Clear